Probability
100 100 100 100 100 100 100 100 100 100 100 100 100 100 100 100 100 100 100 100 100 100 100 100 100 100 100 100 100 100 100 100 100 100 100 100 100 97 97 87 65 16 3
100 100 100 100 100 100 100 100 100 100 100 100 100 100 100 100 100 100 100 100 100 100 100 100 100 100 100 100 100 100 100 100 100 100 100 100 100 97 100 94 87 48 3
100 100 100 100 100 100 100 100 100 100 100 100 100 100 100 100 100 100 100 100 100 100 100 100 100 100 100 100 100 100 100 100 100 100 100 100 100 100 97 100 97 77 3
100 100 100 100 100 100 100 100 100 100 100 100 100 100 100 100 100 100 100 100 100 100 100 100 100 100 100 100 100 100 100 100 100 100 100 100 100 97 94 94 94 52 3
100 100 100 100 100 100 100 97 97 100 94 87 87 84 97 97 100 97 100 100 100 100 100 100 100 100 100 100 100 100 100 100 100 100 100 100 100 100 74 55 26 3 0
100 100 100 100 100 100 100 94 94 90 94 87 65 42 71 87 100 97 100 97 97 100 100 94 100 100 100 100 100 100 100 100 100 100 100 100 100 100 61 16 0 0 0
100 100 100 100 100 97 97 97 97 90 90 84 65 52 48 65 65 74 87 87 90 90 90 77 87 97 97 100 100 100 100 100 100 100 100 100 100 100 84 29 0 0 0
97 97 97 97 97 90 90 90 94 74 68 61 48 35 10 13 42 58 87 94 90 90 87 81 94 94 100 77 29 97 100 100 100 100 100 100 100 100 100 55 3 0 0
97 97 97 94 97 94 87 84 77 68 55 35 32 6 0 3 32 58 87 97 100 100 87 84 87 94 97 84 87 3 90 100 100 100 100 100 100 100 90 61 19 3 0
97 94 90 87 87 87 81 74 58 52 32 6 6 3 0 19 6 13 68 81 68 71 74 52 55 74 81 84 74 48 13 39 90 97 97 97 97 97 71 58 55 10 0
100 87 87 71 68 55 48 52 42 26 10 0 0 0 0 6 10 10 0 26 42 52 58 68 55 26 32 32 39 6 0 3 6 52 84 87 90 94 94 94 97 94 61
100 71 58 52 48 45 32 26 13 0 0 0 0 0 0 0 6 6 6 16 19 48 52 65 42 23 13 6 0 0 0 0 0 0 0 16 23 42 74 87 87 74 68
90 77 42 45 42 19 13 10 0 0 0 0 0 0 0 3 6 6 13 13 13 29 23 35 35 19 3 10 0 0 0 0 0 0 0 0 0 3 6 13 23 29 32
90 81 58 45 39 16 3 10 3 0 0 0 0 0 3 10 6 3 10 3 0 3 3 0 10 3 3 10 0 0 0 0 0 0 0 0 0 0 0 0 0 0 0
65 48 35 32 23 26 16 13 6 0 0 0 0 3 3 3 6 6 3 0 0 0 0 0 0 0 3 3 0 0 0 0 0 0 0 0 0 0 0 0 0 0 0
35 23 23 19 16 19 13 6 6 3 3 6 6 3 0 3 0 3 6 6 6 0 0 0 0 0 0 0 0 0 0 0 0 0 0 0 0 0 0 0 0 0 0
10 10 10 6 10 3 6 6 3 0 3 3 0 0 0 0 0 3 3 0 0 0 0 0 0 0 0 0 0 0 0 0 0 0 0 0 0 0 0 0 0 0 0
6 6 3 3 0 0 0 0 0 0 0 0 0 0 0 0 0 0 0 0 0 0 0 0 0 0 0 0 0 0 0 0 0 0 0 0 0 0 0 0 0 0 0
0 0 0 0 0 0 0 0 0 0 0 0 0 0 0 0 0 0 0 0 0 0 0 0 0 0 0 0 0 0 0 0 0 0 0 0 0 0 0 0 0 0 0
0 0 0 0 0 0 0 0 0 0 0 0 0 0 0 0 0 0 0 0 0 0 0 0 0 0 0 0 0 0 0 0 0 0 0 0 0 0 0 0 0 0 0
0 0 0 0 0 0 0 0 0 0 0 0 0 0 0 0 0 0 0 0 0 0 0 0 0 0 0 0 0 0 0 0 0 0 0 0 0 0 0 0 0 0 0
0 0 0 0 0 0 0 0 0 0 0 0 0 0 0 0 0 0 0 0 0 0 0 0 0 0 0 0 0 0 0 0 0 0 0 0 0 0 0 0 0 0 0
0 0 0 0 0 0 0 0 0 0 0 0 0 0 0 0 0 0 0 0 0 0 0 0 0 0 0 0 0 0 0 0 0 0 0 0 0 0 0 0 0 0 0
0 0 0 0 0 0 0 0 0 0 0 0 0 0 0 0 0 0 0 0 0 0 0 0 0 0 0 0 0 0 0 0 0 0 0 0 0 0 0 0 0 0 0
0 0 0 0 0 0 0 0 0 0 0 0 0 0 0 0 0 0 0 0 0 0 0 0 0 0 0 0 0 0 0 0 0 0 0 0 0 0 0 0 0 0 0
0 0 0 0 0 0 0 0 0 0 0 0 0 0 0 0 0 0 0 0 0 0 0 0 0 0 0 0 0 0 0 0 0 0 0 0 0 0 0 0 0 0 0
Height
5899 5898 5897 5896 5895 5895 5894 5893 5892 5892 5892 5891 5891 5891 5891 5890 5889 5887 5887 5886 5884 5883 5882 5881 5880 5880 5880 5880 5880 5881 5881 5881 5881 5881 5881 5881 5881 5880 5880 5880 5880 5880 5880
5893 5893 5892 5891 5890 5889 5889 5888 5888 5888 5887 5887 5886 5886 5886 5885 5885 5884 5882 5882 5881 5880 5879 5878 5876 5875 5875 5875 5875 5875 5876 5877 5877 5877 5877 5877 5877 5877 5877 5877 5877 5877 5877
5888 5886 5886 5885 5885 5884 5883 5883 5882 5882 5882 5881 5881 5880 5880 5880 5879 5878 5878 5877 5876 5875 5874 5873 5872 5870 5870 5869 5869 5870 5870 5871 5872 5872 5873 5873 5873 5873 5873 5873 5873 5873 5873
5881 5879 5878 5878 5877 5877 5877 5876 5875 5874 5874 5874 5874 5874 5873 5873 5873 5872 5872 5871 5870 5869 5869 5867 5866 5865 5864 5864 5864 5864 5864 5865 5866 5867 5867 5868 5868 5868 5868 5868 5868 5868 5869
5873 5872 5870 5870 5869 5869 5868 5867 5867 5866 5865 5864 5864 5865 5865 5865 5865 5865 5865 5864 5864 5862 5862 5861 5860 5859 5858 5857 5857 5857 5858 5858 5859 5860 5861 5862 5863 5863 5863 5863 5863 5863 5863
5863 5863 5862 5861 5860 5859 5859 5858 5857 5856 5855 5854 5853 5854 5855 5856 5856 5856 5857 5857 5856 5855 5854 5854 5853 5853 5851 5850 5850 5850 5851 5851 5852 5853 5855 5856 5857 5857 5857 5857 5857 5857 5858
5853 5852 5853 5852 5850 5849 5849 5848 5847 5845 5844 5842 5841 5841 5843 5845 5846 5847 5848 5848 5847 5846 5846 5845 5845 5845 5844 5843 5843 5843 5843 5844 5845 5846 5847 5848 5850 5851 5851 5851 5851 5851 5851
5844 5842 5842 5841 5840 5839 5838 5838 5836 5834 5833 5830 5828 5828 5830 5833 5834 5836 5838 5839 5839 5838 5837 5837 5836 5836 5836 5836 5836 5835 5835 5836 5837 5838 5839 5841 5842 5843 5844 5844 5844 5844 5844
5833 5832 5831 5830 5829 5828 5828 5827 5825 5823 5821 5819 5816 5815 5817 5819 5821 5825 5826 5828 5830 5830 5829 5829 5828 5828 5827 5827 5828 5828 5827 5828 5829 5830 5831 5832 5833 5834 5835 5836 5837 5837 5837
5823 5821 5820 5819 5818 5817 5816 5815 5813 5811 5808 5806 5805 5804 5805 5807 5810 5814 5816 5817 5820 5821 5821 5821 5820 5820 5819 5819 5819 5820 5820 5820 5821 5822 5823 5824 5825 5825 5826 5827 5828 5828 5829
5812 5810 5809 5808 5807 5806 5804 5803 5802 5799 5796 5794 5793 5793 5794 5796 5799 5802 5806 5807 5810 5811 5812 5812 5812 5812 5812 5812 5812 5813 5813 5812 5813 5813 5814 5815 5816 5816 5817 5818 5819 5819 5820
5799 5799 5797 5796 5795 5794 5792 5791 5789 5788 5785 5783 5783 5783 5784 5786 5789 5792 5796 5798 5800 5802 5803 5804 5804 5805 5805 5805 5806 5805 5804 5805 5805 5805 5805 5806 5807 5807 5808 5809 5809 5810 5811
5786 5786 5785 5784 5783 5782 5780 5778 5777 5777 5775 5774 5774 5774 5775 5777 5780 5782 5785 5789 5792 5793 5794 5795 5796 5797 5797 5797 5798 5798 5798 5798 5797 5797 5797 5797 5797 5797 5798 5798 5799 5799 5800
5773 5772 5772 5771 5771 5770 5768 5767 5766 5766 5766 5766 5766 5766 5767 5768 5770 5772 5776 5780 5783 5785 5785 5786 5788 5788 5789 5789 5790 5790 5790 5790 5790 5789 5788 5788 5787 5787 5787 5788 5788 5788 5789
5759 5758 5758 5758 5758 5758 5757 5756 5756 5756 5757 5757 5758 5758 5759 5760 5761 5763 5767 5771 5774 5776 5778 5778 5779 5780 5781 5781 5782 5782 5782 5781 5781 5780 5779 5777 5777 5776 5776 5776 5777 5777 5778
5745 5744 5744 5745 5746 5746 5746 5746 5747 5748 5749 5750 5750 5751 5752 5753 5754 5757 5760 5763 5766 5768 5769 5770 5771 5772 5772 5773 5773 5773 5773 5772 5772 5770 5769 5767 5766 5766 5765 5765 5766 5766 5767
5730 5730 5732 5733 5735 5736 5737 5738 5740 5741 5742 5743 5744 5745 5746 5747 5749 5751 5754 5756 5758 5760 5762 5762 5763 5763 5764 5764 5764 5764 5763 5763 5762 5761 5760 5758 5756 5755 5755 5754 5754 5755 5756
5716 5717 5719 5722 5725 5727 5729 5731 5733 5735 5736 5737 5738 5739 5741 5742 5744 5746 5748 5750 5752 5753 5754 5755 5755 5755 5755 5755 5754 5754 5754 5753 5753 5751 5750 5748 5747 5745 5744 5743 5743 5743 5744
5704 5706 5709 5713 5716 5719 5721 5724 5727 5728 5729 5731 5732 5734 5736 5737 5739 5741 5743 5744 5745 5746 5746 5747 5747 5747 5746 5745 5745 5744 5744 5743 5742 5741 5740 5738 5737 5736 5734 5733 5732 5732 5732
5696 5697 5701 5704 5708 5712 5715 5717 5720 5722 5724 5726 5728 5729 5731 5733 5734 5736 5737 5738 5738 5738 5738 5738 5738 5738 5737 5736 5736 5735 5734 5733 5732 5730 5729 5728 5727 5726 5725 5723 5721 5721 5721
5691 5693 5695 5699 5702 5706 5709 5711 5714 5717 5719 5721 5723 5725 5726 5728 5729 5730 5730 5731 5731 5731 5731 5730 5730 5729 5728 5727 5726 5725 5724 5722 5721 5720 5719 5718 5717 5716 5715 5714 5712 5710 5710
5691 5691 5693 5696 5699 5702 5705 5708 5710 5713 5715 5717 5718 5720 5721 5722 5722 5723 5723 5723 5723 5723 5722 5722 5721 5720 5719 5718 5716 5715 5714 5713 5711 5710 5709 5708 5707 5707 5706 5705 5703 5702 5701
5691 5692 5693 5695 5698 5700 5702 5704 5706 5708 5710 5712 5713 5714 5715 5715 5716 5716 5716 5715 5715 5714 5714 5713 5712 5711 5710 5708 5707 5705 5703 5702 5701 5700 5699 5697 5697 5697 5696 5695 5695 5694 5693
5692 5692 5693 5694 5695 5696 5698 5700 5702 5704 5705 5706 5707 5708 5709 5709 5709 5709 5709 5709 5708 5707 5707 5706 5704 5703 5701 5699 5697 5696 5694 5692 5691 5690 5689 5688 5687 5687 5686 5686 5686 5685 5685
5690 5690 5691 5692 5692 5694 5695 5696 5698 5699 5701 5702 5702 5703 5703 5704 5704 5704 5703 5703 5702 5702 5700 5699 5697 5695 5693 5691 5688 5686 5684 5683 5682 5680 5679 5678 5678 5678 5677 5677 5677 5677 5678
5688 5688 5688 5689 5689 5690 5691 5692 5694 5695 5696 5698 5698 5699 5699 5699 5699 5699 5699 5698 5697 5696 5694 5692 5690 5688 5685 5682 5679 5677 5675 5673 5671 5670 5669 5669 5668 5668 5669 5669 5669 5670 5670
Wind_Speed
32 31 30 29 28 27 26 24 23 23 23 24 24 23 20 19 17 17 16 16 17 17 17 17 16 17 18 20 21 21 20 19 19 18 17 16 16 16 16 16 15 15 15
36 36 34 33 33 32 31 30 29 27 26 26 27 27 26 24 22 21 21 20 20 20 21 21 20 20 20 20 21 22 22 22 21 20 19 19 19 18 18 18 18 17 17
39 39 39 38 38 37 36 35 34 32 31 30 30 31 30 29 27 25 25 24 23 23 24 25 25 24 23 23 22 22 23 24 24 23 22 21 21 20 21 20 20 19 19
41 42 42 42 41 41 40 39 38 36 36 35 34 34 34 33 31 30 29 28 28 27 26 28 28 28 27 26 25 24 23 24 25 25 24 23 22 22 22 22 22 22 21
44 45 46 46 46 45 44 44 43 41 41 41 40 39 38 37 35 34 33 31 30 29 29 28 29 29 30 29 28 27 25 24 25 26 26 25 24 24 23 23 23 24 25
49 48 48 49 49 48 47 48 47 46 45 44 45 44 42 41 40 37 36 35 34 32 31 30 28 28 30 30 29 29 28 26 25 26 27 27 27 26 25 25 26 26 26
53 52 52 51 49 49 49 50 50 49 49 49 49 47 45 44 43 41 38 37 36 35 32 31 30 28 29 30 30 30 29 28 28 27 28 29 29 30 30 29 29 29 29
55 54 53 52 50 49 48 49 49 50 51 51 51 50 48 46 45 43 40 38 37 36 35 34 32 30 29 29 29 30 30 29 29 29 30 31 32 33 33 33 32 31 31
54 55 54 53 53 52 50 50 51 52 51 51 51 50 47 46 46 43 42 40 37 36 36 35 33 30 29 28 27 28 29 30 30 30 31 32 33 34 34 35 35 33 32
55 56 56 55 54 54 53 52 52 51 50 50 50 49 47 46 44 44 42 41 37 36 36 35 32 29 28 27 27 26 28 30 31 31 32 33 34 35 36 35 35 35 34
54 54 54 54 53 53 53 52 50 49 49 48 47 46 45 44 44 43 41 40 37 35 34 32 30 28 26 26 26 24 26 28 30 32 33 34 35 36 36 36 36 36 36
52 51 50 50 50 50 50 49 48 47 45 43 43 42 42 43 44 43 40 38 36 34 32 30 29 27 25 25 24 23 25 26 28 31 33 34 36 37 39 39 39 39 39
51 50 50 50 49 49 48 48 46 44 41 39 38 39 40 40 41 39 35 33 32 32 31 30 28 27 26 26 24 24 25 26 29 31 33 35 36 38 39 41 41 41 41
53 52 51 50 49 48 47 45 42 41 38 37 36 38 40 40 37 33 30 29 29 30 30 29 28 27 27 27 26 26 27 28 30 32 34 35 37 38 39 41 41 41 41
55 54 52 50 47 45 43 40 38 37 35 34 34 36 38 35 32 29 27 28 28 28 29 29 28 28 29 29 29 29 29 29 30 31 33 34 36 38 39 41 41 41 41
54 52 49 45 42 39 37 35 34 33 33 33 32 32 31 29 27 25 26 27 27 28 29 29 29 29 30 30 31 31 31 30 31 31 32 33 35 37 39 41 42 41 40
49 47 45 41 38 35 32 31 32 31 32 31 28 27 25 24 23 24 25 26 27 28 29 30 30 31 32 32 33 33 33 33 33 33 33 32 33 35 39 40 41 42 41
43 41 39 35 33 31 30 31 31 30 29 26 24 23 22 22 22 23 24 26 27 29 30 31 31 32 32 34 35 36 36 36 36 35 35 34 34 34 36 38 40 40 40
34 34 33 33 31 29 28 27 27 26 24 22 21 21 21 21 22 23 25 26 27 28 29 30 31 32 33 34 36 37 38 38 38 37 36 35 35 35 35 36 38 39 40
26 27 27 27 27 26 25 23 23 22 20 19 20 21 21 22 23 24 24 25 26 27 28 30 31 32 34 35 36 37 38 38 39 38 37 36 35 35 34 34 35 35 36
15 17 20 22 23 22 20 19 19 20 19 19 19 20 20 21 21 22 23 24 25 27 28 29 31 32 33 34 35 36 37 37 37 37 36 36 35 35 35 33 32 32 32
6 9 11 14 16 17 17 18 18 18 19 19 19 19 19 20 20 22 23 24 25 26 27 29 30 31 33 34 34 35 35 35 35 35 35 35 35 35 34 33 32 30 28
3 3 6 9 11 12 14 16 17 18 19 19 19 19 20 20 21 21 22 23 24 25 26 28 29 30 31 32 33 34 34 34 34 34 34 33 34 34 33 33 32 30 27
6 6 7 10 11 13 15 16 17 17 18 18 18 18 18 18 18 19 20 20 21 23 24 25 26 28 29 31 32 33 33 33 34 34 33 32 31 31 31 31 32 30 26
9 9 10 11 12 13 14 14 15 15 15 15 15 15 15 14 14 14 15 17 19 20 22 24 25 27 29 31 32 33 33 33 33 33 33 32 31 30 30 30 29 29 27
10 10 10 10 10 10 9 9 10 11 12 12 11 11 10 11 12 12 14 16 18 20 22 24 27 29 30 31 32 33 34 33 33 32 32 31 31 30 29 29 27 27 27
Wind_Direction
297 297 297 296 293 289 286 286 283 279 274 270 268 268 271 274 281 288 294 298 301 299 296 292 289 287 284 282 280 279 278 277 276 276 278 281 283 283 285 285 285 285 282
295 296 296 297 297 295 292 289 286 282 278 273 270 268 269 272 274 280 285 289 291 292 290 287 285 283 281 281 280 278 277 275 274 274 275 277 279 280 281 282 283 283 281
292 293 295 296 296 296 296 294 290 286 281 276 272 269 268 269 272 275 280 284 286 285 285 284 281 280 279 278 278 277 277 274 272 272 273 275 278 279 280 280 281 281 280
289 290 292 293 294 294 294 292 290 286 282 277 273 270 267 267 270 274 279 282 284 285 283 281 279 278 278 278 277 276 275 274 272 270 271 273 275 278 281 281 280 279 279
287 288 289 290 290 291 291 291 289 286 283 279 274 269 266 266 266 270 275 280 283 284 283 280 278 277 277 276 276 276 273 272 271 270 269 271 273 276 280 283 284 280 278
286 284 285 287 287 288 288 288 290 288 285 282 278 273 266 263 262 265 271 277 281 283 283 281 278 276 276 275 274 273 272 269 268 268 268 268 270 273 278 282 284 284 280
283 283 285 285 286 287 288 288 289 289 289 285 281 276 270 266 263 264 269 275 278 282 283 282 280 277 274 274 273 271 271 269 266 265 265 266 267 270 274 279 282 283 280
281 282 284 285 285 287 289 290 289 290 289 285 282 278 272 268 265 265 268 271 274 279 282 283 283 280 275 271 270 270 269 268 266 264 264 264 266 268 270 274 279 280 279
281 283 284 285 287 288 289 288 288 289 288 285 282 278 273 267 263 264 268 269 271 275 279 282 283 281 278 274 270 269 269 267 267 266 265 265 265 268 270 273 274 277 277
281 282 285 285 286 286 286 286 286 286 286 283 280 276 271 264 260 261 266 268 269 271 276 279 279 278 276 275 272 269 269 270 269 268 267 267 266 267 268 270 271 274 275
280 281 283 283 284 284 284 284 284 283 284 282 278 272 265 259 257 257 260 265 268 270 273 275 275 275 274 273 273 274 272 271 271 271 271 269 268 268 268 268 270 271 273
280 281 281 283 283 284 284 283 282 280 283 279 273 266 258 255 254 256 258 260 266 270 271 271 271 272 272 272 273 274 274 274 273 274 273 272 272 271 269 269 269 270 270
280 280 280 281 282 283 283 281 278 277 277 275 269 260 254 251 252 252 254 257 261 266 269 269 269 270 271 273 273 272 273 274 275 275 274 274 274 274 272 270 270 269 267
279 279 278 278 279 280 280 278 275 273 272 269 262 255 250 249 247 247 251 255 259 263 266 267 268 269 270 273 274 275 276 276 275 276 276 276 276 274 273 272 270 268 266
279 277 276 276 276 276 275 273 271 268 265 260 255 252 248 246 245 246 250 255 259 262 263 265 267 269 271 273 276 278 279 280 280 280 280 280 279 277 275 273 270 268 265
277 274 273 272 272 270 267 264 263 260 257 252 249 247 247 247 244 248 253 256 259 261 262 263 265 269 271 274 276 279 281 283 284 285 286 286 284 280 277 274 270 267 265
275 272 269 266 263 260 257 255 253 251 248 248 248 249 249 248 251 254 256 257 259 261 265 267 269 270 272 274 276 278 281 283 285 286 287 287 288 285 280 274 270 267 264
275 268 262 256 254 250 247 245 245 246 247 249 251 253 256 257 258 259 259 261 262 265 267 270 272 274 275 276 277 279 281 282 283 285 286 287 288 288 283 275 271 267 263
273 263 253 248 244 240 239 239 242 244 247 251 253 255 259 260 261 263 264 265 267 269 270 272 274 276 278 279 280 280 281 282 283 283 284 286 287 288 286 279 272 267 262
268 255 248 239 233 232 230 232 237 243 248 252 254 256 259 262 264 266 268 270 271 272 273 275 277 278 279 280 281 282 282 282 282 282 282 282 283 285 286 283 276 270 263
263 249 234 229 228 225 225 229 236 242 245 249 255 258 261 264 266 268 270 272 274 275 277 278 279 280 280 281 281 281 281 282 282 282 281 280 280 280 282 281 281 273 265
264 239 222 221 224 225 230 235 239 246 250 254 257 261 264 266 267 270 272 274 276 278 280 282 283 283 283 282 282 282 282 282 282 281 281 279 277 277 280 278 279 274 266
310 244 227 228 231 233 237 244 248 253 256 259 261 262 263 265 269 272 275 279 282 284 286 287 287 287 286 286 285 284 283 283 283 282 280 279 277 277 278 278 278 278 270
290 270 254 249 248 248 250 251 254 255 257 259 261 263 264 267 271 276 281 284 288 291 292 293 293 292 291 290 289 287 285 284 283 282 280 279 278 278 277 279 279 279 273
278 272 265 260 258 257 256 256 256 257 258 259 261 263 267 271 277 282 288 292 295 297 298 298 298 297 295 293 292 290 288 286 284 282 280 278 277 276 276 277 278 278 277
274 268 265 264 258 255 255 256 258 261 263 264 266 270 277 284 290 294 298 301 303 304 303 303 301 299 297 295 293 291 289 286 284 282 279 277 276 275 274 274 275 274 274